Погода в Милане

Италия     45°28′08″N   9°10′53″E
темп.,
°C
ветер,
м/с
пор.,
м/с
влажн.,
%
обл.,
%
осадки,
мм/ч
давл.,
гПа
погр.,
м
13 июня, вс
вс1323:00+24з246340 0.0 1016108
02:00+22з256963 0.0 1016150
05:00+21сз226052 0.0 101665
08:00+23сз125241 0.0 1017224
11:00+29з23365 0.0 1016900
14:00+32юз33280 0.0 10151702
17:00+32ююз32340 0.0 10141587
20:00+29вюв34480 0.0 1015462
14 июня, пн
пн1423:00+24вюв411710 0.0 1018501
02:00+22в410724 0.0 1019518
05:00+21в396898 0.0 1019569
08:00+21в3667100 0.0 1020436
11:00+24вюв34519 0.0 1019822
14:00+27юв32441 0.0 10181406
17:00+28вюв33474 0.0 10161521
20:00+26вюв34570 0.0 1015832
15 июня, вт
вт1523:00+22вюв396946 0.0 1018434
02:00+21в4962100 0.0 1018478
05:00+20в3858100 0.0 1019431
08:00+20в3659100 0.0 1019408
11:00+24вюв34454 0.0 1019877
14:00+27юв32395 0.0 10181366
17:00+28ю31395 0.0 10161602
20:00+26ююз225165 0.0 1016520
16 июня, ср
ср1623:00+23сз116264 0.0 101741
02:00+21в257161 0.0 1018178
05:00+19вюв136758 0.0 1017103
08:00+21вюв12569 0.0 1017277
11:00+26ююв214233 0.0 1017883
14:00+28ююв324266 0.0 10151335
17:00+29юв334227 0.0 10151582
20:00+28юв224951 0.0 1014962
17 июня, чт
чт1723:00+24вюв376695 0.2 1015319
02:00+22в256882 0.4 1016253
05:00+21вюв1373100 0.1 1016157
08:00+22вюв236292 0.1 1016238
11:00+24вюв235295 0.1 1016788
14:00+29юв334077 0.1 10151532
17:00+29юв334089 0.0 10141564
20:00+26в2455100 0.1 1014341